x

St. Joseph, Mi (sjom4) Weather Station

12:50pm - Sun 24th May 2015 All times are CDT. -5 hours from GMT.

  • Wind
    1mph, 5mph gusts
  • Air Temp 73°f
  • Sea Pressure 1021mb
  • St. Joseph, Mi
  • St. Joseph, Mi

More Historic Weather Station data

Upgrade to MSW Pro to gain access to the past 30 days of data for over 8000 Wavebouys and Weather Stations around the globe.

Join Pro

Comparision Forecast

View Surf forecast
   
Sun 05/24 12:50pm 1 5 mph 1021mb 73f
12:40pm  -  5 mph 1021.7mb 73f
12:35pm 1 5 mph 1021mb 73f
12:30pm  -  3 mph 1022mb 73f
12:20pm  -  3 mph 1022mb 73f
12:10pm  -  2 mph 1021.7mb 73f
12:00pm  -  2 mph 1022.4mb 73f
11:50am  -  3 mph 1022.7mb 72f
11:40am 2 5 mph 1022mb 71f
11:35am 1 5 mph 1022mb 71f
11:30am 2 3 mph 1022.7mb 71f
11:20am  -  2 mph 1022.4mb 70f
11:10am  -  2 mph 1022.7mb 69f
11:00am  -  1 mph 1022.4mb 69f
10:50am  -  2 mph 1022.7mb 68f
10:40am  -  2 mph 1022mb 68f
10:35am  -  7 mph 1022mb 68f
10:30am  -  1 mph 1022.7mb 68f
10:20am  -  2 mph 1023mb 67f
10:10am  -  3 mph 1022.7mb 67f
10:00am  -  3 mph 1023.4mb 68f
9:50am  -  7 mph 1022.7mb 68f
9:40am 2 6 mph 1023.7mb 68f
9:34am 2 6 mph 1023.4mb 67f
9:30am 2 6 mph 1023mb 67f
9:20am 2 3 mph 1023.7mb 67f
9:10am 1 5 mph 1023mb 66f
9:00am 1 5 mph 1023mb 65f
8:50am  -  6 mph 1023.4mb 65f
8:40am 2 6 mph 1022.7mb 65f
8:34am 2 6 mph 1023.4mb 65f
8:30am  -  6 mph 1023mb 65f
8:20am  -  6 mph 1023.4mb 65f
8:10am 1 5 mph 1022.7mb 64f
8:00am 1 3 mph 1023.4mb 64f
7:50am 1 6 mph 1023mb 63f
7:40am  -  5 mph 1023mb 63f
7:33am 1 6 mph 1023.7mb 63f
7:30am  -  5 mph 1023.7mb 63f
7:20am  -  5 mph 1023.4mb 62f
7:10am 2 5 mph 1022.7mb 62f
7:00am 2 6 mph 1023.7mb 62f
6:50am 2 6 mph 1024mb 61f
6:40am 1 5 mph 1023.7mb 61f
6:33am 1 8 mph 1023mb 61f
6:30am  -  3 mph 1023mb 61f
6:20am  -  6 mph 1023.4mb 61f
6:10am 1 5 mph 1023.7mb 61f
6:00am 2 7 mph 1023.7mb 60f
5:50am 2 8 mph 1023.4mb 60f
5:40am 3 7 mph 1023.7mb 60f
5:33am 3 8 mph 1024.4mb 60f
5:30am 3 6 mph 1024.4mb 60f
5:20am 3 7 mph 1024mb 60f
5:10am 2 8 mph 1023.7mb 60f
5:00am 3 6 mph 1024mb 60f
4:50am 2 5 mph 1024mb 61f
4:40am 2 6 mph 1023.4mb 62f
4:32am 3 9 mph 1023.7mb 62f
4:30am 3 7 mph 1024mb 62f
4:20am 3 8 mph 1024mb 63f
4:10am 5 9 mph 1023.7mb 64f
4:00am 5 9 mph 1024mb 64f
3:50am 3 8 mph 1023.4mb 64f
3:40am 5 8 mph 1023.7mb 64f
3:32am 3 13 mph 1024mb 64f
3:30am 5 9 mph 1023.7mb 64f
3:20am 3 7 mph 1023mb 64f
3:10am 3 11 mph 1023.7mb 64f
3:00am 5 9 mph 1023mb 64f
2:50am 5 10 mph 1023.4mb 65f
2:40am 5 13 mph 1023.4mb 65f
2:31am 3 11 mph 1023.4mb 65f
2:30am 3 9 mph 1022.7mb 65f
2:20am 3 10 mph 1023.7mb 65f
2:10am 6 8 mph 1022.7mb 64f
2:00am 3 8 mph 1023.4mb 65f
1:50am 5 11 mph 1023.4mb 65f
1:40am 3 8 mph 1023mb 65f
1:31am 3 7 mph 1023mb 65f
1:30am 3 6 mph 1023.7mb 65f
1:20am 2 5 mph 1023mb 64f
1:10am 2 6 mph 1023.4mb 64f
1:00am 2 6 mph 1023.7mb 63f
12:50am 2 7 mph 1022.7mb 63f
12:40am 2 6 mph 1023.7mb 64f
12:31am 2 5 mph 1023.4mb 64f
12:30am 2 5 mph 1023.4mb 64f
12:20am  -  3 mph 1023.7mb 63f
12:10am 1 3 mph 1024mb 64f
12:00am  -  3 mph 1023.4mb 64f
Sat 05/23 11:50pm  -  3 mph 1023.4mb 64f
11:40pm  -  2 mph 1024.4mb 64f
11:30pm  -  2 mph 1023.4mb 64f
11:20pm  -  2 mph 1023.7mb 64f
11:10pm  -  1 mph 1024.4mb 64f
11:00pm  -  1 mph 1023.7mb 64f
10:50pm  -  1 mph 1024.4mb 64f
10:40pm  -  1 mph 1023.7mb 64f
10:30pm  -  2 mph 1024mb 64f
10:20pm  -  1 mph 1023.7mb 65f
10:10pm  -  1 mph 1024mb 65f
10:00pm  -  1 mph 1023.4mb 65f
9:50pm  -  1 mph 1024mb 65f
9:40pm  -  1 mph 1023.4mb 66f
9:30pm  -  1 mph 1024mb 66f
9:29pm  -  2 mph 1023mb 66f
9:20pm  -  mph 1023.4mb 66f
9:10pm  -  1 mph 1024mb 67f
9:00pm  -  mph 1023mb 67f
8:50pm  -  2 mph 1023.7mb 67f
8:40pm  -  1 mph 1023.7mb 68f
8:30pm  -  1 mph 1023mb 69f
8:29pm  -  3 mph 1023.7mb 69f
8:20pm  -  2 mph 1023.4mb 70f
8:10pm  -  1 mph 1024mb 71f
8:00pm  -  1 mph 1024mb 71f
7:50pm  -  3 mph 1023.7mb 73f
7:40pm  -  3 mph 1023.4mb 76f
7:30pm  -  5 mph 1023mb 76f
7:29pm  -  6 mph 1024mb 77f
7:20pm 1 3 mph 1023.4mb 76f
7:10pm 3 6 mph 1023.7mb 76f
7:00pm 3 5 mph 1024mb 75f
6:50pm 5 6 mph 1024mb 74f
6:40pm 5 6 mph 1023.7mb 74f
6:30pm 5 6 mph 1023.4mb 75f
6:28pm 3 8 mph 1023.7mb 74f
6:20pm 5 7 mph 1023.4mb 74f
6:10pm 5 7 mph 1024mb 74f
6:00pm 7 8 mph 1024.4mb 73f
5:50pm 6 8 mph 1024.4mb 71f
5:40pm 6 8 mph 1024mb 71f
5:30pm 6 8 mph 1024mb 71f
5:28pm 6 9 mph 1024mb 70f
5:20pm 7 8 mph 1024.7mb 70f
5:10pm 7 8 mph 1025.1mb 70f
5:00pm 7 8 mph 1025.1mb 70f
4:50pm 8 9 mph 1024.7mb 70f
4:40pm 7 8 mph 1024.4mb 70f
4:30pm 7 9 mph 1025.1mb 68f
4:27pm 7 9 mph 1024.7mb 68f
4:20pm 8 9 mph 1025.4mb 69f
4:10pm 7 8 mph 1024.7mb 69f
4:00pm 7 9 mph 1024.7mb 69f
3:50pm 8 9 mph 1025.7mb 67f
3:40pm 7 9 mph 1026.1mb 67f
3:30pm 7 8 mph 1025.4mb 68f
3:27pm 7 9 mph 1025.4mb 69f
3:20pm 7 8 mph 1025.4mb 69f
3:10pm 8 9 mph 1026.1mb 68f
3:00pm 7 8 mph 1025.7mb 68f
2:50pm 7 8 mph 1025.7mb 67f
2:40pm 7 8 mph 1026.8mb 67f
2:30pm 8
mph
1026.4mb 66f
2:27pm 7 8 mph 1026.4mb 66f
2:20pm 6 8 mph 1026.4mb 66f
2:10pm 6 8 mph 1027.1mb 66f
2:00pm 6 8 mph 1026.8mb 65f
1:50pm 6 7 mph 1026.4mb 64f
1:40pm 5 7 mph 1027.4mb 66f
1:30pm 5 6 mph 1027.4mb 65f
1:26pm 5 6 mph 1026.8mb 66f
1:20pm 5 6 mph 1026.8mb 66f
1:10pm 5
mph
1027.4mb 65f
1:00pm 3 5 mph 1027.8mb 65f
12:50pm 3
mph
1027.1mb 65f
12:40pm 3 5 mph 1027.1mb 65f
12:30pm 2 5 mph 1027.8mb 65f
12:26pm 3 5 mph 1027.8mb 65f
12:20pm 2 3 mph 1027.8mb 65f
12:10pm  -  5 mph 1027.4mb 64f
12:00pm 2
mph
1027.8mb 65f
11:50am 2 3 mph 1028.1mb 66f
11:40am  -  2 mph 1027.8mb 66f
11:30am 1 2 mph 1027.4mb 66f
11:25am  -  6 mph 1028.1mb 65f
11:20am  -  1 mph 1028.1mb 67f
11:10am  -  2 mph 1028.4mb 69f
11:00am 1 3 mph 1027.8mb 65f
10:50am 3 5 mph 1028.4mb 65f
10:40am 3 6 mph 1028.4mb 62f
10:30am 3 13 mph 1028.1mb 65f
10:25am 7 13 mph 1028.8mb 69f
10:20am 9 11 mph 1028.8mb 68f
10:10am 5 7 mph 1028.1mb 69f
10:00am 5 7 mph 1028.4mb 69f
9:50am 3 8 mph 1028.8mb 69f
9:40am 3 7 mph 1028.8mb 68f
9:30am 3 7 mph 1028.1mb 67f
9:25am 3 11 mph 1028.8mb 66f
9:20am 5 9 mph 1028.8mb 66f
9:10am 6 8 mph 1028.4mb 65f
9:00am 5 10 mph 1028.1mb 64f
8:50am 3 7 mph 1028.8mb 63f
8:40am 5 11 mph 1029.1mb 62f
8:30am 5 8 mph 1028.8mb 61f
8:24am 3 9 mph 1028.1mb 61f
8:20am 3 7 mph 1028.1mb 61f
8:10am 2 6 mph 1028.1mb 59f
8:00am 3 7 mph 1028.4mb 58f
7:50am 2 9 mph 1028.4mb 57f
7:40am 2 9 mph 1028.8mb 56f
7:30am 3 9 mph 1028.4mb 55f
7:24am 3 9 mph 1028.4mb 55f
7:20am 2 8 mph 1028.4mb 55f
7:10am 1 9 mph 1028.1mb 54f
7:00am 1 8 mph 1027.8mb 53f
6:50am 1 5 mph 1027.8mb 52f
6:40am  -  5 mph 1027.4mb 52f
6:30am 1 8 mph 1027.4mb 51f
6:23am  -  8 mph 1027.4mb 51f
6:20am 1 7 mph 1027.4mb 51f
6:10am 2 6 mph 1027.8mb 51f
6:00am 1 8 mph 1027.4mb 50f
5:50am  -  6 mph 1027.4mb 50f
5:40am  -  5 mph 1027.4mb 50f
5:30am 1 7 mph 1027.4mb 49f
5:23am 1 6 mph 1027.1mb 49f
5:20am  -  5 mph 1027.4mb 49f
5:10am  -  5 mph 1027.1mb 49f
5:00am 2 5 mph 1027.1mb 49f
4:50am 1 6 mph 1027.4mb 50f
4:40am 1 5 mph 1027.1mb 50f
4:30am 2 6 mph 1027.1mb 50f
4:23am 2 8 mph 1027.1mb 50f
4:20am 2 8 mph 1027.1mb 50f
4:10am 2 6 mph 1027.4mb 50f
4:00am 2 5 mph 1027.1mb 50f
3:50am 1 5 mph 1027.1mb 50f
3:40am 1 7 mph 1027.1mb 50f
3:30am 2 5 mph 1027.1mb 50f
3:22am 1 7 mph 1026.4mb 50f
3:20am  -  6 mph 1026.8mb 50f
3:10am  -  5 mph 1026.8mb 49f
3:00am  -  5 mph 1026.8mb 49f
2:50am  -  7 mph 1026.4mb 49f
2:40am 1 6 mph 1026.1mb 50f
2:30am  -  3 mph 1026.1mb 50f
2:22am  -  5 mph 1026.1mb 50f
2:20am  -  3 mph 1026.1mb 50f
2:10am  -  2 mph 1026.1mb 50f
2:00am  -  5 mph 1026.4mb 50f
1:50am 1 5 mph 1026.4mb 50f
1:40am  -  2 mph 1026.4mb 50f
1:30am  -  3 mph 1026.8mb 51f
1:21am 1 5 mph 1026.1mb 51f
1:20am 1 3 mph 1026.8mb 51f
1:10am 1 5 mph 1026.8mb 52f
1:00am 3 5 mph 1026.4mb 52f
12:50am 1 5 mph 1025.7mb 53f
12:40am 2 3 mph 1025.7mb 53f
12:30am  -  3 mph 1026.1mb 53f
12:21am  -  6 mph 1025.7mb 53f
12:20am  -  6 mph 1026.4mb 53f
12:10am  -  3 mph 1026.4mb 54f
12:00am 1 3 mph 1026.1mb 54f
Fri 05/22 11:50pm 2 5 mph 1025.7mb 54f
11:40pm 1 5 mph 1025.7mb 54f
11:30pm 1 3 mph 1026.1mb 54f
11:21pm 2 6 mph 1026.4mb 54f
11:20pm 2 5 mph 1026.8mb 54f
11:10pm 2 6 mph 1026.8mb 54f
11:00pm 2 5 mph 1026.4mb 53f
10:50pm 1 5 mph 1026.1mb 53f
10:40pm 1 3 mph 1026.1mb 53f
10:30pm  -  2 mph 1026.1mb 53f
10:20pm  -  2 mph 1026.1mb 53f
10:10pm  -  2 mph 1026.4mb 53f
10:00pm  -  3 mph 1026.8mb 53f
9:50pm  -  5 mph 1027.1mb 53f
9:40pm 1 5 mph 1026.8mb 53f
9:30pm 1 3 mph 1026.1mb 53f
9:20pm  -  3 mph 1026.1mb 53f
9:10pm  -  5 mph 1026.1mb 54f
9:00pm 2 5 mph 1026.1mb 54f
8:50pm 2 3 mph 1026.4mb 54f
8:40pm 1 3 mph 1026.4mb 54f
8:30pm 2 5 mph 1026.1mb 54f
8:20pm 2 5 mph 1025.7mb 55f
8:19pm 3 5 mph 1025.7mb 55f
8:10pm 1 2 mph 1025.7mb 55f
8:00pm  -  2 mph 1026.1mb 54f
7:50pm 1 3 mph 1026.1mb 55f
7:40pm  -  5 mph 1025.7mb 56f
7:30pm 2 3 mph 1025.7mb 56f
7:20pm 1 5 mph 1026.4mb 57f
7:19pm  -  11 mph 1026.1mb 56f
7:10pm 2 6 mph 1026.4mb 56f
7:00pm 3 7 mph 1026.1mb 56f
6:50pm 6 7 mph 1026.8mb 57f
6:40pm 6 8 mph 1025.7mb 56f
6:30pm 7 11 mph 1025.7mb 57f
6:20pm 6 14 mph 1026.1mb 56f
6:18pm 6 16 mph 1025.4mb 56f
6:10pm 9 14 mph 1025.4mb 55f
6:00pm 8 13 mph 1025.7mb 56f
5:50pm 9 15 mph 1025.7mb 55f
5:40pm 11 16 mph 1025.1mb 56f
5:30pm 10 14 mph 1026.1mb 55f
5:20pm 9 14 mph 1025.7mb 56f
5:18pm 9 17 mph 1025.4mb 56f
5:10pm 8 16 mph 1025.4mb 55f
5:00pm 11 16 mph 1026.1mb 55f
4:50pm 11 17 mph 1025.1mb 55f
4:40pm 13 16 mph 1025.7mb 55f
4:30pm 11 14 mph 1026.1mb 55f
4:20pm 11 15 mph 1025.4mb 55f
4:18pm 11 16 mph 1025.4mb 55f
4:10pm 13 15 mph 1025.7mb 55f
4:00pm 10 15 mph 1026.1mb 55f
3:50pm 10 14 mph 1025.4mb 54f
3:40pm 11 16 mph 1025.7mb 54f
3:30pm 10 14 mph 1026.1mb 53f
3:20pm 10 14 mph 1025.4mb 54f
3:17pm 9 16 mph 1025.4mb 54f
3:10pm 10 15 mph 1025.4mb 54f
3:00pm 11 15 mph 1026.1mb 53f
2:50pm 10 14 mph 1025.7mb 54f
2:40pm 13 16 mph 1025.1mb 53f
2:30pm 11 15 mph 1025.7mb 53f
2:20pm 10 14 mph 1025.7mb 53f
2:17pm 11 14 mph 1025.7mb 53f
2:10pm 10 14 mph 1025.1mb 53f
2:00pm 9 13 mph 1025.4mb 53f
1:50pm 10 13 mph 1025.7mb 53f
1:40pm 10 13 mph 1025.1mb 53f
1:30pm 8 11 mph 1025.1mb 53f
1:20pm 8 10 mph 1025.7mb 54f
1:16pm 8 13 mph 1025.4mb 54f
1:10pm 9 13 mph 1025.1mb 53f
1:00pm 10 13 mph 1024.7mb 53f
12:50pm 10 13 mph 1025.4mb 54f
12:40pm 10 13 mph 1025.1mb 53f
12:30pm 10 13 mph 1024.4mb 54f
12:20pm 9 11 mph 1024.4mb 53f
12:16pm 9 13 mph 1024.7mb 53f
12:10pm 8 13 mph 1025.1mb 53f
12:00pm 10 13 mph 1024.7mb 54f
11:50am 8 11 mph 1024mb 54f
11:40am 9 13 mph 1024mb 54f
11:30am 9 11 mph 1024.7mb 54f
11:20am 10 13 mph 1023.7mb 54f
11:16am 9 13 mph 1024.4mb 55f
11:10am 8 10 mph 1024mb 55f
11:00am 7 10 mph 1024mb 55f
10:50am 8 11 mph 1023.4mb 54f
10:40am 8 11 mph 1023.7mb 55f
10:30am 7 11 mph 1023.4mb 55f
10:20am 8 10 mph 1023.4mb 55f
10:15am 7 11 mph 1023.4mb 56f
10:10am 7 11 mph 1023.4mb 60f
10:00am 3 9 mph 1022.7mb 61f
9:50am 3 8 mph 1023.4mb 61f
9:40am 2 10 mph 1023mb 60f
9:30am 3 9 mph 1022.4mb 60f
9:20am 6 9 mph 1023mb 59f
9:15am 2 10 mph 1023mb 60f
9:10am 2 8 mph 1023mb 59f
9:00am 3 9 mph 1022.7mb 58f
8:50am 6 9 mph 1022.4mb 58f
8:40am 3 10 mph 1022mb 57f
8:30am 2 8 mph 1022mb 57f
8:20am 5 7 mph 1022.4mb 57f
8:14am 2 8 mph 1022.7mb 56f
8:10am 3 8 mph 1022.4mb 56f
8:00am 3 7 mph 1022.4mb 55f
7:50am 2 6 mph 1022mb 55f
7:40am 2 5 mph 1022mb 53f
7:30am 2 5 mph 1021.3mb 53f
7:20am 1 8 mph 1021mb 52f
7:14am 2 8 mph 1021mb 52f
7:10am 1 5 mph 1021mb 52f
7:00am 1 6 mph 1020.7mb 51f
6:50am 2 5 mph 1020.7mb 51f
6:40am 1 3 mph 1020.3mb 50f
6:30am 2 5 mph 1020.3mb 49f
6:20am  -  5 mph 1020.7mb 48f
6:14am  -  5 mph 1020.3mb 48f
6:10am 1 5 mph 1021mb 48f
6:00am 2 3 mph 1021mb 48f
5:50am 2 5 mph 1021mb 48f
5:40am  -  2 mph 1020.7mb 47f
5:30am 2
mph
1020.7mb 48f
5:20am  -  2 mph 1020.7mb 47f
5:10am  -  2 mph 1020.3mb 48f
5:00am  -  2 mph 1020mb 48f
4:50am  -  1 mph 1019.3mb 49f
4:40am  -  5 mph 1019.3mb 49f
4:30am 2 3 mph 1019mb 49f
4:20am  -  2 mph 1019mb 49f
4:10am  -  3 mph 1019mb 50f
4:00am  -  5 mph 1019.3mb 50f
3:50am  -  1 mph 1019.3mb 50f
3:40am  -  8 mph 1019mb 50f
3:30am 2 5 mph 1019mb 51f
3:20am 2 3 mph 1018.6mb 51f
3:12am  -  11 mph 1017.9mb 52f
3:10am  -  3 mph 1018.3mb 52f
3:00am 2 7 mph 1017.6mb 53f
2:50am 3 8 mph 1017.6mb 53f
2:40am 5 10 mph 1017.9mb 53f
2:30am 3 11 mph 1018.3mb 54f
2:20am 2 9 mph 1017.9mb 54f
2:12am 6 20 mph 1017.9mb 55f
2:10am 8 11 mph 1017.6mb 55f
2:00am 5 9 mph 1017.3mb 55f
1:50am 8 15 mph 1017.3mb 54f
1:40am 9 17 mph 1017.6mb 53f
1:30am 14 20 mph 1018.3mb 53f
1:20am 15 17 mph 1019mb 55f
1:12am 14 20 mph 1019mb 55f
1:10am 14 17 mph 1018.6mb 55f
1:00am 10 14 mph 1017.9mb 56f
12:50am 6 9 mph 1017.6mb 55f
12:40am 8 13 mph 1017.9mb 56f
12:30am 13 16 mph 1018.3mb 56f
12:20am 11 20 mph 1018.6mb 56f
12:11am 9 18 mph 1017.6mb 58f
12:10am 9 16 mph 1017.3mb 58f
12:00am 13 17 mph 1016.6mb 58f
Thu 05/21 11:50pm 13 16 mph 1016.6mb 58f
11:40pm 14 17 mph 1016.9mb 58f
11:30pm 15 18 mph 1017.3mb 59f
11:20pm 13 18 mph 1016.6mb 59f
11:11pm 13 22 mph 1016.9mb 58f
11:10pm 13 18 mph 1016.6mb 58f
11:00pm 14 21 mph 1017.3mb 58f
10:50pm 16 22 mph 1016.9mb 60f
10:40pm 16 22 mph 1016.3mb 61f
10:30pm 16 22 mph 1016.9mb 61f
10:20pm 14 21 mph 1017.3mb 61f
10:10pm 14 20 mph 1016.9mb 61f
10:00pm 13 20 mph 1016.9mb 61f
9:50pm 14 18 mph 1017.3mb 61f
9:40pm 13 17 mph 1016.9mb 61f
9:30pm 13 16 mph 1016.6mb 61f
9:20pm 11 17 mph 1016.9mb 60f
9:10pm 11 20 mph 1016.3mb 60f
9:00pm 13 18 mph 1016.3mb 60f
8:50pm 13 18 mph 1016.6mb 60f
8:40pm 11 18 mph 1016.9mb 60f
8:30pm 13 18 mph 1016.6mb 60f
8:20pm 15 20 mph 1016.3mb 60f
8:10pm 14 21 mph 1016.9mb 59f
8:00pm 14 21 mph 1016.9mb 60f
7:50pm 14 17 mph 1016.6mb 60f
7:40pm 14 18 mph 1015.9mb 60f
7:30pm 14 20 mph 1016.9mb 60f
7:20pm 14 20 mph 1016.3mb 60f
7:10pm 15 20 mph 1016.3mb 60f
7:09pm 16 20 mph 1015.9mb 60f
7:00pm 16 20 mph 1016.9mb 60f
6:50pm 15 20 mph 1016.3mb 60f
6:40pm 15 18 mph 1016.9mb 60f
6:30pm 14 18 mph 1016.6mb 60f
6:20pm 15 20 mph 1016.6mb 59f
6:10pm 14 18 mph 1017.3mb 60f
6:09pm 14 20 mph 1016.9mb 59f
6:00pm 14 17 mph 1016.6mb 59f
5:50pm 15 18 mph 1017.3mb 59f
5:40pm 14 18 mph 1017.6mb 59f
5:30pm 15 17 mph 1016.6mb 58f
5:20pm 14 20 mph 1017.3mb 58f
5:10pm 14 18 mph 1017.9mb 58f
5:08pm 13 17 mph 1017.6mb 57f
5:00pm 13 16 mph 1017.3mb 56f
4:50pm 13 16 mph 1017.6mb 56f
4:40pm 13 15 mph 1017.9mb 55f
4:30pm 13 15 mph 1017.3mb 54f
4:20pm 13 15 mph 1017.6mb 55f
4:10pm 13 15 mph 1018.3mb 54f
4:08pm 13 17 mph 1018.3mb 54f
4:00pm 13 15 mph 1017.9mb 54f
3:50pm 13 15 mph 1017.6mb 54f
3:40pm 13 17 mph 1017.9mb 53f
3:30pm 14 16 mph 1018.3mb 53f
3:20pm 13 15 mph 1018.3mb 53f
3:10pm 13 15 mph 1017.6mb 52f
3:08pm 13 16 mph 1018.6mb 52f
3:00pm 13 15 mph 1018.3mb 52f
2:50pm 13 15 mph 1018.6mb 52f
2:40pm 13 15 mph 1018.6mb 52f
2:30pm 11 14 mph 1018.3mb 52f
2:20pm 13 15 mph 1017.9mb 51f
2:10pm 14 16 mph 1017.9mb 51f
2:07pm 14 16 mph 1018.3mb 51f
2:00pm 15 16 mph 1018.3mb 51f
1:50pm 13 15 mph 1018.6mb 51f
1:40pm 13 15 mph 1018.6mb 51f
1:30pm 11 14 mph 1018.6mb 51f
1:20pm 13 14 mph 1018.3mb 51f
1:10pm 13 15 mph 1017.9mb 51f
1:07pm 11 15 mph 1018.6mb 51f
1:00pm 13 15 mph 1018.6mb 51f
12:50pm 11 14 mph 1019mb 51f
12:40pm 13 15 mph 1019mb 51f
12:30pm 13 14 mph 1019mb 50f
12:20pm 11 14 mph 1019mb 50f
12:10pm 11 14 mph 1019mb 50f
12:06pm 11 15 mph 1019.3mb 49f
12:00pm 13 15 mph 1018.6mb 49f
11:50am 11 13 mph 1018.6mb 50f
11:40am 10 13 mph 1019mb 49f
11:30am 10 14 mph 1019.3mb 49f
11:20am 10 14 mph 1019.6mb 49f
11:10am 10 13 mph 1019.6mb 48f
11:06am 10 11 mph 1019mb 48f
11:00am 9 11 mph 1019.6mb 48f
10:50am 9 10 mph 1019.3mb 48f
10:40am 9 11 mph 1019mb 49f
10:30am 9 10 mph 1019.3mb 49f
10:20am 9 11 mph 1019.3mb 49f
10:10am 9 11 mph 1019.3mb 49f
10:06am 10 13 mph 1019.3mb 49f
10:00am 9 11 mph 1020mb 49f
9:50am 9 11 mph 1020.3mb 48f
9:40am 9 11 mph 1020.3mb 48f
9:30am 8 11 mph 1020.3mb 48f
9:20am 10 13 mph 1020.7mb 48f
9:10am 8 13 mph 1020.3mb 48f
9:05am 9 15 mph 1020mb 48f
9:00am 9 11 mph 1020mb 48f
8:50am 9 11 mph 1019.6mb 48f
8:40am 9 11 mph 1019.3mb 47f
8:30am 9 14 mph 1019.3mb 47f
8:20am 10 15 mph 1019.3mb 47f
8:10am 13 16 mph 1019.3mb 47f
8:05am 13 16 mph 1019mb 47f
8:00am 11 15 mph 1019mb 47f
7:50am 11 15 mph 1019mb 47f
7:40am 11 15 mph 1019mb 47f
7:30am 13 15 mph 1019mb 47f
7:20am 10 14 mph 1019mb 47f
7:10am 10 14 mph 1019mb 47f
7:04am 10 11 mph 1019.3mb 47f
7:00am 10 11 mph 1019mb 47f
6:50am 9 11 mph 1019mb 47f
6:40am 7 11 mph 1018.6mb 47f
6:30am 8 11 mph 1018.6mb 47f
6:20am 8 9 mph 1018.6mb 47f
6:10am 7 9 mph 1019.3mb 47f
6:04am 6 9 mph 1018.6mb 47f
6:00am 6 8 mph 1019.3mb 47f
5:50am 6 8 mph 1019.3mb 47f
5:40am 7 8 mph 1019.6mb 47f
5:30am 6 9 mph 1019.6mb 47f
5:20am 7 8 mph 1019.3mb 47f
5:10am 6 8 mph 1019.3mb 47f
5:04am 5 7 mph 1018.6mb 47f
5:00am 5 7 mph 1018.6mb 47f
4:50am 5 7 mph 1018.6mb 47f
4:40am 3 7 mph 1019mb 47f
4:30am 6 7 mph 1019mb 47f
4:20am 3 7 mph 1019.3mb 47f
4:10am 3 6 mph 1019.3mb 47f
4:03am 3 8 mph 1019.3mb 47f
4:00am 3 6 mph 1019.6mb 47f
3:50am 6 8 mph 1019.6mb 48f
3:40am 7 8 mph 1019.6mb 48f
3:30am 6
mph
1020mb 47f
3:20am 5 6 mph 1019.6mb 47f
3:10am 5 6 mph 1019.6mb 47f
3:03am 5 7 mph 1019.3mb 47f
3:00am 5 7 mph 1020mb 47f
2:50am 5 6 mph 1020mb 47f
2:40am 3 5 mph 1020mb 47f
2:30am 3 5 mph 1020mb 47f
2:20am 3 5 mph 1020mb 46f
2:10am 3 6 mph 1020.3mb 46f
2:02am 3 6 mph 1020mb 46f
2:00am 5 6 mph 1020.3mb 46f
1:50am 5 6 mph 1020.3mb 46f
1:40am 3 6 mph 1020.3mb 46f
1:30am 3 5 mph 1020.3mb 46f
1:20am 3 5 mph 1020.3mb 46f
1:10am 3 6 mph 1020.3mb 46f
1:02am 3 7 mph 1020.3mb 47f
1:00am 3 5 mph 1020.7mb 47f
12:50am 3 5 mph 1020.7mb 46f
12:40am 2 6 mph 1020.7mb 46f
12:30am 2 5 mph 1020.7mb 46f
12:20am 5 6 mph 1020.7mb 47f
12:10am 5 7 mph 1020.3mb 47f
12:01am 5 9 mph 1020.7mb 47f
12:00am 5 7 mph 1020mb 47f
Wed 05/20 11:50pm 7 8 mph 1020.3mb 47f
11:40pm 6 8 mph 1020mb 47f
11:30pm 7 9 mph 1020mb 47f
11:20pm 6 8 mph 1020.3mb 46f
11:10pm 2 3 mph 1020.7mb 44f
11:01pm  -  2 mph 1020.7mb 44f
11:00pm  -  2 mph 1020.3mb 44f
10:50pm  -  1 mph 1020.3mb 44f
10:40pm  -  1 mph 1020.3mb 44f
10:30pm  -  1 mph 1020.7mb 44f
10:20pm  -  1 mph 1021mb 44f
10:10pm  -  1 mph 1021mb 44f
10:01pm  -  9 mph 1020.3mb 44f
10:00pm  -  2 mph 1020.7mb 44f
9:50pm  -  3 mph 1020.3mb 44f
9:40pm 3 7 mph 1020mb 45f
9:30pm 2 5 mph 1020mb 44f
9:20pm 2 6 mph 1020mb 44f
9:10pm 5 9 mph 1020mb 45f
9:00pm 7 11 mph 1020.3mb 45f
8:50pm 9 11 mph 1020.3mb 45f
8:40pm 9 11 mph 1020.3mb 45f
8:30pm 6 10 mph 1020.3mb 44f
8:20pm 9 14 mph 1020.3mb 44f
8:10pm 9 16 mph 1020.7mb 44f
8:00pm 11 16 mph 1020.7mb 45f
7:50pm 8 11 mph 1020.3mb 44f
7:40pm 7 11 mph 1020.3mb 44f
7:30pm 6 15 mph 1020.7mb 44f
7:20pm 5 13 mph 1020.3mb 44f
7:10pm 7 15 mph 1020.7mb 43f
7:00pm 9 14 mph 1020.7mb 43f
6:59pm 9 20 mph 1020mb 43f
6:50pm 8 16 mph 1020.3mb 43f
6:40pm 10 20 mph 1020.3mb 43f